Weather reports worldwide

Advertisment
Jamestown, nd, United States of America (2074583): temperature & dewpoint: 19.03.2019 01:00:00 - 25.03.2019 01:00:00 (CDT)Jamestown, nd, United States of America (2074583): wind speed & gusts: 19.03.2019 01:00:00 - 25.03.2019 01:00:00 (CDT)Jamestown, nd, United States of America (2074583): wind direction: 19.03.2019 01:00:00 - 25.03.2019 01:00:00 (CDT)Jamestown, nd, United States of America (2074583): reduced air pressure: 19.03.2019 01:00:00 - 25.03.2019 01:00:00 (CDT)Jamestown, nd, United States of America (2074583): visibility: 19.03.2019 01:00:00 - 25.03.2019 01:00:00 (CDT)
Date & Time tt [°C] td [°C] ff [km/h] ff [kn] fx [km/h] fx [kn] dd ppp [hPa] vv [km]
25.03.2019 01:00:00 -8,3 -10,0 11 6 - - NNW 1031,6 16
25.03.2019 00:00:00 -7,8 -9,4 9 5 - - N 1031,2 16
24.03.2019 23:00:00 -6,7 -8,3 8 4 - - N 1031,1 16
24.03.2019 22:00:00 -6,1 -7,8 11 6 - - NNE 1030,9 16
24.03.2019 21:00:00 -5,0 -7,2 18 10 - - NNE 1030,1 16
24.03.2019 20:00:00 -4,4 -6,7 15 8 - - NNE 1029,6 16
24.03.2019 19:00:00 -3,3 -6,7 22 12 - - NNE 1029,0 16
24.03.2019 18:00:00 -2,8 -5,6 24 13 - - NNE 1028,4 16
24.03.2019 17:00:00 -1,7 -5,0 24 13 - - NNE 1028,0 16
24.03.2019 16:00:00 -1,7 -5,0 24 13 - - NNE 1027,6 16
24.03.2019 15:00:00 -1,1 -4,4 24 13 - - NNE 1027,4 16
24.03.2019 14:00:00 -1,7 -4,4 24 13 - - NNE 1027,3 16
24.03.2019 13:00:00 -2,2 -5,0 26 14 - - NNE 1027,3 16
24.03.2019 12:00:00 -1,7 -4,4 26 14 - - NNE 1026,5 16
24.03.2019 11:00:00 -1,7 -4,4 31 17 - - NNE 1026,0 10
24.03.2019 10:00:00 -1,7 -3,3 28 15 - - NNE 1025,5 16
24.03.2019 09:00:00 -1,7 -2,8 26 14 - - NNE 1025,2 16
24.03.2019 08:00:00 -1,1 -2,2 18 10 - - NNE 1024,4 16
24.03.2019 07:00:00 -1,1 -1,7 28 15 - - NNE 1023,4 16
24.03.2019 06:00:00 -1,1 -1,7 9 5 - - NNW 1022,7 8
24.03.2019 05:00:00 0,0 0,0 26 14 - - NNE 1021,6 10
24.03.2019 04:00:00 0,0 -0,6 9 5 - - NNW 1021,2 8
24.03.2019 03:00:00 -2,2 -2,8 16 9 - - N 1020,7 8
24.03.2019 02:00:00 -1,7 -2,8 11 6 - - NNW 1020,5 11
24.03.2019 01:00:00 -2,2 -2,8 8 4 - - NNW 1020,1 10
24.03.2019 00:00:00 -0,6 -1,1 5 3 - - WSW 1019,4 11
23.03.2019 23:00:00 0,0 -0,6 0 0 - - N 1019,3 13
23.03.2019 22:00:00 1,1 0,0 8 4 - - SSW 1019,1 16
23.03.2019 21:00:00 1,1 0,0 9 5 - - S 1018,7 16
23.03.2019 20:00:00 1,7 0,6 5 3 - - S 1018,5 16
23.03.2019 19:00:00 2,8 1,1 9 5 - - S 1018,3 16
23.03.2019 18:00:00 3,3 1,7 15 8 - - S 1018,2 16
23.03.2019 17:00:00 3,9 1,7 13 7 - - S 1018,4 16
23.03.2019 16:00:00 4,4 2,2 15 8 - - S 1018,5 16
23.03.2019 15:00:00 5,0 2,2 11 6 - - SSE 1018,5 16
23.03.2019 14:00:00 4,4 1,7 13 7 - - S 1019,3 16
23.03.2019 13:00:00 3,3 1,1 9 5 - - SSE 1019,6 16
23.03.2019 12:00:00 2,2 0,6 13 7 - - S 1019,7 16
23.03.2019 11:00:00 1,1 0,0 13 7 - - S 1019,9 16
23.03.2019 10:00:00 -0,6 -0,6 13 7 - - S 1019,8 16
23.03.2019 09:00:00 -1,7 -2,2 16 9 - - S 1020,1 15
23.03.2019 08:00:00 -3,9 -4,4 16 9 - - S 1020,1 15
23.03.2019 07:00:00 -5,6 -6,7 9 5 - - S 1020,3 16
23.03.2019 06:00:00 -6,1 -6,7 13 7 - - S 1020,2 0,4
23.03.2019 05:00:00 -5,0 -5,6 5 3 - - S 1020,2 0,8
23.03.2019 04:00:00 -5,0 -5,0 13 7 - - S 1020,7 1,2
23.03.2019 03:00:00 -4,4 -4,4 13 7 - - S 1020,6 0,4
23.03.2019 02:00:00 -4,4 -4,4 11 6 - - SSE 1021,0 0,4
23.03.2019 01:00:00 -6,1 -6,7 13 7 - - S 1021,4 2,4
23.03.2019 00:00:00 -5,6 -5,6 11 6 - - S 1022,0 15
22.03.2019 23:00:00 -5,6 -5,6 11 6 - - S 1022,9 16
22.03.2019 22:00:00 -4,4 -6,1 8 4 - - SE 1023,3 16
22.03.2019 21:00:00 -3,9 -4,4 9 5 - - S 1023,7 16
22.03.2019 20:00:00 -1,1 -2,8 9 5 - - S 1023,6 16
22.03.2019 19:00:00 0,6 -2,2 13 7 - - SE 1023,8 16
22.03.2019 18:00:00 1,1 -1,7 15 8 - - ESE 1024,0 16
22.03.2019 17:00:00 2,2 -1,1 11 6 - - ESE 1024,3 16
22.03.2019 16:00:00 2,2 -1,7 8 4 - - SE 1024,6 16
22.03.2019 15:00:00 1,7 -2,2 9 5 - - S 1025,0 16
22.03.2019 14:00:00 1,7 -2,8 5 3 - - SSE 1025,7 16
22.03.2019 13:00:00 1,1 -2,8 11 6 - - SSE 1025,9 16
22.03.2019 12:00:00 0,6 -2,8 8 4 - - SSE 1026,3 16
22.03.2019 11:00:00 -2,8 -4,4 0 0 - - N 1026,8 16
22.03.2019 10:00:00 -5,6 -5,6 0 0 - - N 1026,3 10
22.03.2019 09:00:00 -8,9 -8,9 0 0 - - N 1026,6 10
22.03.2019 08:00:00 -10,0 -10,6 8 4 - - NW 1026,7 15
22.03.2019 07:00:00 -8,9 -10,6 5 3 - - WNW 1026,4 11
22.03.2019 06:00:00 -9,4 -10,0 5 3 - - N 1026,0 8
22.03.2019 05:00:00 -8,9 -9,4 0 0 - - N 1025,7 2,8
22.03.2019 04:00:00 -6,7 -7,2 5 3 - - NW 1025,7 11
22.03.2019 03:00:00 -5,6 -6,1 5 3 - - W 1025,9 15
22.03.2019 02:00:00 -5,0 -5,6 8 4 - - NW 1025,6 8
22.03.2019 01:00:00 -6,1 -7,2 9 5 - - NW 1025,4 10
22.03.2019 00:00:00 -3,3 -4,4 11 6 - - NNW 1025,0 16
21.03.2019 23:00:00 -3,3 -4,4 11 6 - - NNW 1025,0 16
21.03.2019 22:00:00 -1,7 -2,8 16 9 - - NW 1024,2 16
21.03.2019 21:00:00 -0,6 -2,2 15 8 - - N 1023,8 16
21.03.2019 20:00:00 0,6 -1,1 11 6 - - NW 1023,5 16
21.03.2019 19:00:00 2,2 0,0 13 7 - - NNW 1023,1 16
21.03.2019 18:00:00 3,3 0,0 15 8 - - NNW 1022,6 16
21.03.2019 17:00:00 3,9 0,0 15 8 - - NNW 1022,2 16
21.03.2019 16:00:00 3,9 0,6 16 9 - - NNW 1022,0 16
21.03.2019 15:00:00 3,9 0,0 15 8 - - NNW 1021,8 16
21.03.2019 14:00:00 3,9 0,6 13 7 - - NW 1021,4 16
21.03.2019 13:00:00 3,9 0,6 15 8 - - NW 1020,9 16
21.03.2019 12:00:00 3,9 0,6 11 6 - - WNW 1020,4 16
21.03.2019 11:00:00 2,2 -0,6 21 11 - - WNW 1020,5 16
21.03.2019 10:00:00 2,2 0,0 22 12 - - WNW 1020,5 16
21.03.2019 09:00:00 0,0 -1,7 15 8 - - WNW 1020,5 13
21.03.2019 08:00:00 -1,1 -2,2 16 9 - - WNW 1020,6 11
21.03.2019 07:00:00 -0,6 -1,7 21 11 - - W 1020,3 11
21.03.2019 06:00:00 -2,8 -3,3 8 4 - - WSW 1020,2 6
21.03.2019 05:00:00 -1,7 -2,2 11 6 - - W 1020,5 10
21.03.2019 04:00:00 -3,9 -4,4 11 6 - - WSW 1021,3 11
21.03.2019 03:00:00 -3,3 -3,9 11 6 - - WSW 1022,0 11
21.03.2019 02:00:00 -3,9 -4,4 8 4 - - WSW 1022,4 10
21.03.2019 01:00:00 -2,8 -4,4 9 5 - - WSW 1022,9 16
21.03.2019 00:00:00 -2,2 -3,3 9 5 - - WSW 1023,3 16
20.03.2019 23:00:00 -1,7 -3,3 8 4 - - WSW 1023,4 16
20.03.2019 22:00:00 -1,7 -3,3 11 6 - - WNW 1023,8 16
20.03.2019 21:00:00 -0,6 -2,2 13 7 - - WNW 1023,5 16
20.03.2019 20:00:00 0,0 -1,7 11 6 - - NW 1023,4 16
20.03.2019 19:00:00 1,7 -1,1 16 9 - - NW 1023,1 16
20.03.2019 18:00:00 2,2 -0,6 16 9 - - NW 1023,0 16
20.03.2019 17:00:00 2,2 -0,6 18 10 - - NNW 1022,7 16
20.03.2019 16:00:00 2,2 -0,6 21 11 - - NW 1022,3 16
20.03.2019 15:00:00 2,2 -1,1 21 11 - - NNW 1022,1 16
20.03.2019 14:00:00 2,2 -1,1 24 13 - - NNW 1021,9 16
20.03.2019 13:00:00 1,7 -1,1 26 14 - - NNW 1021,5 16
20.03.2019 12:00:00 1,1 -1,1 26 14 - - NNW 1021,1 16
20.03.2019 11:00:00 0,6 -2,2 28 15 - - N 1020,4 16
20.03.2019 10:00:00 -0,6 -2,8 28 15 - - N 1019,5 16
20.03.2019 09:00:00 -0,6 -2,8 29 16 - - NNW 1018,7 16
20.03.2019 08:00:00 -1,1 -2,8 22 12 - - NNW 1017,9 16
20.03.2019 07:00:00 -0,6 -2,2 21 11 - - NNW 1017,2 16
20.03.2019 06:00:00 -1,1 -2,2 13 7 - - WNW 1016,6 16
20.03.2019 05:00:00 0,0 -1,7 21 11 - - NW 1016,1 16
20.03.2019 04:00:00 -1,1 -2,8 16 9 - - NW 1016,1 16
20.03.2019 03:00:00 0,0 -2,2 22 12 - - WNW 1016,0 16
20.03.2019 02:00:00 1,1 -1,7 18 10 - - WNW 1016,3 16
20.03.2019 01:00:00 1,7 -1,1 24 13 - - W 1016,6 16
20.03.2019 00:00:00 2,2 -1,1 34 18 48 26 W 1016,8 16
19.03.2019 23:00:00 2,8 -1,1 24 13 - - W 1017,2 16
19.03.2019 22:00:00 2,2 -0,6 28 15 - - W 1018,1 16
19.03.2019 21:00:00 2,8 -0,6 28 15 - - W 1019,2 16
19.03.2019 20:00:00 2,8 -0,6 28 15 - - W 1020,2 16
19.03.2019 19:00:00 2,8 -0,6 22 12 - - W 1020,8 15
19.03.2019 18:00:00 2,2 -0,6 18 10 - - W 1021,7 16
19.03.2019 17:00:00 2,2 -1,1 26 14 - - W 1021,9 16
19.03.2019 16:00:00 2,8 -1,1 26 14 - - W 1022,0 16
19.03.2019 15:00:00 1,7 -1,7 22 12 - - WNW 1023,0 16
19.03.2019 14:00:00 1,1 -1,1 21 11 - - W 1023,4 16
19.03.2019 13:00:00 -0,6 -1,7 21 11 - - W 1023,8 16
19.03.2019 12:00:00 -1,1 -2,2 13 7 - - NW 1024,3 1,6
19.03.2019 11:00:00 -2,8 -3,3 15 8 - - WNW 1024,1 2,0
19.03.2019 10:00:00 -3,9 -4,4 13 7 - - NW 1024,1 0,4
19.03.2019 09:00:00 -4,4 -5,0 16 9 - - NW 1023,7 -
19.03.2019 08:00:00 -6,7 -6,7 9 5 - - W 1023,7 0,4
19.03.2019 07:00:00 -6,7 -7,2 13 7 - - WNW 1022,9 0,8
19.03.2019 06:00:00 -8,3 -8,9 8 4 - - NW 1022,5 11
19.03.2019 05:00:00 -7,2 -7,8 11 6 - - NW 1022,0 16
19.03.2019 04:00:00 -5,0 -5,6 8 4 - - WNW 1021,6 16
19.03.2019 03:00:00 -2,8 -4,4 5 3 - - W 1021,6 16
19.03.2019 02:00:00 -1,7 -3,3 9 5 - - W 1021,7 16
19.03.2019 01:00:00 0,0 -2,2 9 5 - - W 1021,4 16

tt = temperature
td = dewpoint
ff = wind speed
fx = gusts
dd = wind direction
ppp = reduced air pressure
vv = visibility

Next stations